| time (UTC) | temp C | wind direction | speed KPH | gust KPH | rain 1hr cm | rain 24hr cm | rain mn cm | humidity % | barometer mb |
| 20260507153735 | 25 | 93 | 0.0 | 3.2 | 0.00 | 0.00 | 0.00 | 23 | 1014.7 |
| 20260507153232 | 25 | 147 | 0.0 | 1.6 | 0.00 | 0.00 | 0.00 | 24 | 1014.4 |
| 20260507152728 | 24 | 126 | 3.2 | 3.2 | 0.00 | 0.00 | 0.00 | 23 | 1014.6 |
| 20260507152225 | 23 | 54 | 1.6 | 1.6 | 0.00 | 0.00 | 0.00 | 25 | 1014.4 |
| 20260507151721 | 23 | 53 | 0.0 | 1.6 | 0.00 | 0.00 | 0.00 | 25 | 1014.7 |
| 20260507151217 | 23 | 65 | 1.6 | 1.6 | 0.00 | 0.00 | 0.00 | 26 | 1014.6 |
| 20260507150714 | 23 | 66 | 0.0 | 1.6 | 0.00 | 0.00 | 0.00 | 26 | 1014.6 |
| 20260507150211 | 23 | 79 | 0.0 | 1.6 | 0.00 | 0.00 | 0.00 | 27 | 1014.4 |
| 20260507145707 | 22 | 41 | 1.6 | 1.6 | 0.00 | 0.00 | 0.00 | 28 | 1014.4 |
| 20260507145204 | 22 | 41 | 0.0 | 1.6 | 0.00 | 0.00 | 0.00 | 27 | 1014.4 |
| 20260507144700 | 22 | 41 | 1.6 | 1.6 | 0.00 | 0.00 | 0.00 | 27 | 1014.2 |
| 20260507144159 | 22 | 40 | 0.0 | 0.0 | 0.00 | 0.00 | 0.00 | 28 | 1014.6 |
| 20260507143655 | 22 | 40 | 1.6 | 1.6 | 0.00 | 0.00 | 0.00 | 27 | 1014.7 |
| 20260507143152 | 21 | 40 | 1.6 | 1.6 | 0.00 | 0.00 | 0.00 | 28 | 1014.6 |
| 20260507142647 | 21 | 45 | 0.0 | 3.2 | 0.00 | 0.00 | 0.00 | 27 | 1014.4 |
| 20260507142145 | 21 | 44 | 1.6 | 3.2 | 0.00 | 0.00 | 0.00 | 29 | 1014.3 |
| 20260507141641 | 20 | 65 | 0.0 | 1.6 | 0.00 | 0.00 | 0.00 | 31 | 1014.3 |
| 20260507141138 | 20 | 65 | 0.0 | 1.6 | 0.00 | 0.00 | 0.00 | 32 | 1014.3 |
| 20260507140634 | 19 | 65 | 0.0 | 0.0 | 0.00 | 0.00 | 0.00 | 36 | 1014.4 |
| 20260507140132 | 18 | 65 | 0.0 | 0.0 | 0.00 | 0.00 | 0.00 | 36 | 1014.4 |
| 20260507135628 | 18 | 65 | 0.0 | 0.0 | 0.00 | 0.00 | 0.00 | 36 | 1014.3 |
| 20260507135126 | 18 | 65 | 0.0 | 0.0 | 0.00 | 0.00 | 0.00 | 37 | 1014.4 |
| 20260507134622 | 18 | 65 | 0.0 | 0.0 | 0.00 | 0.00 | 0.00 | 37 | 1014.4 |
| 20260507134118 | 17 | 65 | 0.0 | 0.0 | 0.00 | 0.00 | 0.00 | 37 | 1014.2 |
| 20260507133614 | 17 | 65 | 0.0 | 0.0 | 0.00 | 0.00 | 0.00 | 36 | 1014.1 |
| 20260507133112 | 17 | 65 | 0.0 | 0.0 | 0.00 | 0.00 | 0.00 | 36 | 1014.0 |
| 20260507132609 | 17 | 65 | 0.0 | 0.0 | 0.00 | 0.00 | 0.00 | 37 | 1014.1 |
| 20260507132105 | 16 | 65 | 0.0 | 0.0 | 0.00 | 0.00 | 0.00 | 37 | 1014.0 |
| 20260507131602 | 17 | 65 | 0.0 | 0.0 | 0.00 | 0.00 | 0.00 | 38 | 1014.0 |
| 20260507131100 | 16 | 65 | 0.0 | 0.0 | 0.00 | 0.00 | 0.00 | 37 | 1014.1 |
| 20260507130556 | 16 | 65 | 0.0 | 0.0 | 0.00 | 0.00 | 0.00 | 36 | 1014.0 |
| 20260507130054 | 16 | 65 | 0.0 | 0.0 | 0.00 | 0.00 | 0.00 | 36 | 1013.9 |
| 20260507125553 | 16 | 65 | 0.0 | 0.0 | 0.00 | 0.00 | 0.00 | 36 | 1014.0 |
| 20260507125050 | 16 | 65 | 0.0 | 0.0 | 0.00 | 0.00 | 0.00 | 37 | 1013.8 |
| 20260507124546 | 16 | 65 | 0.0 | 0.0 | 0.00 | 0.00 | 0.00 | 36 | 1013.9 |
| 20260507124044 | 16 | 65 | 0.0 | 0.0 | 0.00 | 0.00 | 0.00 | 36 | 1014.0 |
| 20260507123542 | 17 | 65 | 0.0 | 0.0 | 0.00 | 0.00 | 0.00 | 35 | 1014.0 |
| 20260507123038 | 17 | 65 | 0.0 | 0.0 | 0.00 | 0.00 | 0.00 | 36 | 1013.8 |
| 20260507122533 | 17 | 65 | 0.0 | 0.0 | 0.00 | 0.00 | 0.00 | 33 | 1013.9 |
| 20260507122030 | 17 | 65 | 1.6 | 1.6 | 0.00 | 0.00 | 0.00 | 33 | 1013.8 |
| 20260507121525 | 18 | 64 | 0.0 | 0.0 | 0.00 | 0.00 | 0.00 | 35 | 1013.9 |
| 20260507121021 | 18 | 64 | 0.0 | 0.0 | 0.00 | 0.00 | 0.00 | 32 | 1013.7 |
| 20260507120518 | 18 | 64 | 0.0 | 1.6 | 0.00 | 0.00 | 0.00 | 32 | 1013.7 |
| 20260507120015 | 18 | 66 | 0.0 | 0.0 | 0.00 | 0.00 | 0.00 | 32 | 1013.8 |
| 20260507115511 | 18 | 67 | 0.0 | 0.0 | 0.00 | 0.00 | 0.00 | 31 | 1013.7 |
| 20260507115007 | 18 | 67 | 0.0 | 0.0 | 0.00 | 0.00 | 0.00 | 31 | 1013.7 |
| 20260507114503 | 18 | 67 | 0.0 | 0.0 | 0.00 | 0.00 | 0.00 | 31 | 1013.9 |
| 20260507114000 | 18 | 67 | 1.6 | 1.6 | 0.00 | 0.00 | 0.00 | 31 | 1013.8 |
| 20260507113458 | 18 | 74 | 0.0 | 1.6 | 0.00 | 0.00 | 0.00 | 31 | 1013.9 |
| 20260507112954 | 18 | 55 | 0.0 | 0.0 | 0.00 | 0.00 | 0.00 | 32 | 1014.0 |
| 20260507112452 | 18 | 55 | 0.0 | 0.0 | 0.00 | 0.00 | 0.00 | 32 | 1014.0 |
| 20260507111949 | 18 | 55 | 0.0 | 0.0 | 0.00 | 0.00 | 0.00 | 31 | 1014.0 |
| 20260507111446 | 18 | 55 | 0.0 | 0.0 | 0.00 | 0.00 | 0.00 | 30 | 1014.0 |
| 20260507110942 | 19 | 55 | 0.0 | 0.0 | 0.00 | 0.00 | 0.00 | 30 | 1014.1 |
| 20260507110438 | 19 | 58 | 0.0 | 0.0 | 0.00 | 0.00 | 0.00 | 29 | 1014.0 |
| 20260507105935 | 19 | 59 | 0.0 | 1.6 | 0.00 | 0.00 | 0.00 | 29 | 1014.0 |
| 20260507105432 | 19 | 59 | 0.0 | 0.0 | 0.00 | 0.00 | 0.00 | 29 | 1014.1 |
| 20260507104929 | 19 | 59 | 1.6 | 1.6 | 0.00 | 0.00 | 0.00 | 29 | 1014.1 |
| 20260507104426 | 19 | 59 | 0.0 | 0.0 | 0.00 | 0.00 | 0.00 | 29 | 1014.1 |
| 20260507103927 | 18 | 59 | 0.0 | 0.0 | 0.00 | 0.00 | 0.00 | 30 | 1014.2 |
| 20260507103424 | 18 | 59 | 0.0 | 0.0 | 0.00 | 0.00 | 0.00 | 31 | 1014.2 |
| 20260507102919 | 18 | 59 | 0.0 | 0.0 | 0.00 | 0.00 | 0.00 | 30 | 1014.3 |
| 20260507102417 | 18 | 59 | 0.0 | 0.0 | 0.00 | 0.00 | 0.00 | 32 | 1014.2 |
| 20260507101913 | 18 | 59 | 0.0 | 0.0 | 0.00 | 0.00 | 0.00 | 31 | 1014.3 |
| 20260507101408 | 18 | 59 | 0.0 | 0.0 | 0.00 | 0.00 | 0.00 | 30 | 1014.3 |
| 20260507100905 | 18 | 59 | 0.0 | 0.0 | 0.00 | 0.00 | 0.00 | 31 | 1014.6 |
| 20260507100403 | 19 | 59 | 0.0 | 0.0 | 0.00 | 0.00 | 0.00 | 35 | 1014.7 |
| 20260507095901 | 19 | 59 | 0.0 | 0.0 | 0.00 | 0.00 | 0.00 | 29 | 1014.4 |
| 20260507095357 | 20 | 59 | 0.0 | 0.0 | 0.00 | 0.00 | 0.00 | 28 | 1014.4 |
| 20260507094854 | 20 | 59 | 0.0 | 0.0 | 0.00 | 0.00 | 0.00 | 27 | 1014.4 |
| 20260507094351 | 20 | 59 | 0.0 | 0.0 | 0.00 | 0.00 | 0.00 | 26 | 1014.4 |
| 20260507093848 | 20 | 59 | 0.0 | 0.0 | 0.00 | 0.00 | 0.00 | 26 | 1014.2 |
| 20260507093346 | 20 | 59 | 1.6 | 1.6 | 0.00 | 0.00 | 0.00 | 27 | 1014.1 |
| 20260507092844 | 20 | 59 | 0.0 | 1.6 | 0.00 | 0.00 | 0.00 | 27 | 1014.6 |
| 20260507092340 | 20 | 59 | 0.0 | 1.6 | 0.00 | 0.00 | 0.00 | 27 | 1014.4 |
| 20260507091836 | 20 | 40 | 3.2 | 3.2 | 0.00 | 0.00 | 0.00 | 27 | 1014.3 |
| 20260507091333 | 20 | 58 | 1.6 | 3.2 | 0.00 | 0.00 | 0.00 | 27 | 1014.6 |
| 20260507090829 | 20 | 55 | 0.0 | 1.6 | 0.00 | 0.00 | 0.00 | 26 | 1014.4 |
| 20260507090325 | 20 | 54 | 0.0 | 0.0 | 0.00 | 0.00 | 0.00 | 26 | 1014.2 |
| 20260507085822 | 20 | 281 | 0.0 | 0.0 | 0.00 | 0.00 | 0.00 | 30 | 1014.3 |
| 20260507085319 | 20 | 281 | 0.0 | 0.0 | 0.00 | 0.00 | 0.00 | 26 | 1014.3 |
| 20260507084817 | 20 | 281 | 0.0 | 0.0 | 0.00 | 0.00 | 0.00 | 26 | 1014.3 |
| 20260507084313 | 20 | 280 | 0.0 | 0.0 | 0.00 | 0.00 | 0.00 | 27 | 1014.4 |
| 20260507083810 | 20 | 280 | 0.0 | 0.0 | 0.00 | 0.00 | 0.00 | 26 | 1014.4 |
| 20260507083307 | 20 | 280 | 1.6 | 1.6 | 0.00 | 0.00 | 0.00 | 25 | 1014.6 |
| 20260507082802 | 20 | 262 | 0.0 | 0.0 | 0.00 | 0.00 | 0.00 | 26 | 1014.6 |
| 20260507082258 | 20 | 243 | 0.0 | 0.0 | 0.00 | 0.00 | 0.00 | 27 | 1014.4 |
| 20260507081755 | 20 | 243 | 0.0 | 0.0 | 0.00 | 0.00 | 0.00 | 27 | 1014.6 |
| 20260507081251 | 20 | 242 | 0.0 | 0.0 | 0.00 | 0.00 | 0.00 | 27 | 1014.7 |
| 20260507080748 | 20 | 242 | 0.0 | 0.0 | 0.00 | 0.00 | 0.00 | 26 | 1014.7 |
| 20260507080244 | 20 | 242 | 0.0 | 0.0 | 0.00 | 0.00 | 0.00 | 29 | 1014.7 |
| 20260507075740 | 20 | 243 | 0.0 | 0.0 | 0.00 | 0.00 | 0.00 | 26 | 1014.7 |
| 20260507075236 | 21 | 242 | 0.0 | 0.0 | 0.00 | 0.00 | 0.00 | 26 | 1014.8 |
| 20260507074732 | 21 | 242 | 0.0 | 1.6 | 0.00 | 0.00 | 0.00 | 26 | 1014.7 |
| 20260507074231 | 21 | 241 | 1.6 | 1.6 | 0.00 | 0.00 | 0.00 | 25 | 1014.7 |
| 20260507073727 | 21 | 256 | 0.0 | 1.6 | 0.00 | 0.00 | 0.00 | 25 | 1014.7 |
| 20260507073224 | 21 | 238 | 1.6 | 1.6 | 0.00 | 0.00 | 0.00 | 25 | 1014.7 |
| 20260507072722 | 21 | 233 | 1.6 | 1.6 | 0.00 | 0.00 | 0.00 | 25 | 1014.7 |
| 20260507072219 | 21 | 232 | 0.0 | 1.6 | 0.00 | 0.00 | 0.00 | 26 | 1014.7 |
| 20260507071717 | 21 | 231 | 1.6 | 3.2 | 0.00 | 0.00 | 0.00 | 25 | 1014.6 |
| 20260507071213 | 21 | 210 | 0.0 | 1.6 | 0.00 | 0.00 | 0.00 | 25 | 1014.7 |
| 20260507070710 | 21 | 210 | 1.6 | 1.6 | 0.00 | 0.00 | 0.00 | 26 | 1014.7 |
| 20260507070207 | 21 | 210 | 0.0 | 1.6 | 0.00 | 0.00 | 0.00 | 28 | 1014.6 |
| 20260507065703 | 21 | 210 | 0.0 | 0.0 | 0.00 | 0.00 | 0.00 | 26 | 1014.8 |
| 20260507065200 | 21 | 210 | 0.0 | 1.6 | 0.00 | 0.00 | 0.00 | 26 | 1014.4 |
| 20260507064657 | 21 | 210 | 0.0 | 1.6 | 0.00 | 0.00 | 0.00 | 26 | 1014.6 |
| 20260507064156 | 21 | 210 | 0.0 | 0.0 | 0.00 | 0.00 | 0.00 | 25 | 1014.7 |
| 20260507063653 | 21 | 210 | 0.0 | 0.0 | 0.00 | 0.00 | 0.00 | 26 | 1014.7 |
| 20260507063150 | 21 | 210 | 0.0 | 1.6 | 0.00 | 0.00 | 0.00 | 25 | 1014.8 |
| 20260507062646 | 22 | 210 | 0.0 | 0.0 | 0.00 | 0.00 | 0.00 | 26 | 1014.7 |
| 20260507062144 | 21 | 210 | 0.0 | 1.6 | 0.00 | 0.00 | 0.00 | 25 | 1014.7 |
| 20260507061642 | 21 | 210 | 0.0 | 1.6 | 0.00 | 0.00 | 0.00 | 25 | 1014.6 |
| 20260507061140 | 22 | 210 | 0.0 | 0.0 | 0.00 | 0.00 | 0.00 | 25 | 1014.8 |
| 20260507060638 | 21 | 210 | 0.0 | 0.0 | 0.00 | 0.00 | 0.00 | 25 | 1014.7 |
| 20260507060134 | 21 | 210 | 1.6 | 1.6 | 0.00 | 0.00 | 0.00 | 25 | 1014.8 |
| 20260507055629 | 21 | 210 | 0.0 | 0.0 | 0.00 | 0.00 | 0.00 | 25 | 1014.6 |
| 20260507055125 | 22 | 210 | 0.0 | 0.0 | 0.00 | 0.00 | 0.00 | 27 | 1014.7 |
| 20260507054621 | 22 | 210 | 0.0 | 0.0 | 0.00 | 0.00 | 0.00 | 25 | 1014.8 |
| 20260507054119 | 22 | 210 | 0.0 | 0.0 | 0.00 | 0.00 | 0.00 | 25 | 1014.7 |
| 20260507053617 | 22 | 210 | 0.0 | 0.0 | 0.00 | 0.00 | 0.00 | 24 | 1014.8 |
| 20260507053115 | 22 | 210 | 0.0 | 0.0 | 0.00 | 0.00 | 0.00 | 24 | 1014.8 |
| 20260507052613 | 22 | 210 | 0.0 | 1.6 | 0.00 | 0.00 | 0.00 | 25 | 1014.4 |
| 20260507052109 | 23 | 210 | 0.0 | 0.0 | 0.00 | 0.00 | 0.00 | 24 | 1014.7 |
| 20260507051606 | 23 | 210 | 0.0 | 0.0 | 0.00 | 0.00 | 0.00 | 24 | 1014.3 |
| 20260507051103 | 23 | 210 | 0.0 | 1.6 | 0.00 | 0.00 | 0.00 | 23 | 1014.2 |
| 20260507050600 | 23 | 210 | 0.0 | 0.0 | 0.00 | 0.00 | 0.00 | 23 | 1014.6 |
| 20260507050056 | 23 | 210 | 0.0 | 0.0 | 0.00 | 0.00 | 0.00 | 23 | 1014.3 |
| 20260507045553 | 23 | 193 | 0.0 | 3.2 | 0.00 | 0.00 | 0.00 | 23 | 1014.6 |
| 20260507045050 | 23 | 206 | 1.6 | 1.6 | 0.00 | 0.00 | 0.00 | 23 | 1014.3 |
| 20260507044547 | 23 | 205 | 0.0 | 1.6 | 0.00 | 0.00 | 0.00 | 22 | 1014.3 |
| 20260507044044 | 24 | 205 | 0.0 | 0.0 | 0.00 | 0.00 | 0.00 | 23 | 1014.4 |
| 20260507043539 | 24 | 205 | 0.0 | 0.0 | 0.00 | 0.00 | 0.00 | 23 | 1014.2 |
| 20260507043037 | 24 | 206 | 1.6 | 1.6 | 0.00 | 0.00 | 0.00 | 22 | 1014.6 |
| 20260507042533 | 24 | 205 | 0.0 | 3.2 | 0.00 | 0.00 | 0.00 | 23 | 1014.2 |
| 20260507042028 | 24 | 205 | 1.6 | 1.6 | 0.00 | 0.00 | 0.00 | 24 | 1014.3 |
| 20260507041526 | 24 | 234 | 1.6 | 1.6 | 0.00 | 0.00 | 0.00 | 24 | 1014.3 |
| 20260507041023 | 25 | 234 | 1.6 | 1.6 | 0.00 | 0.00 | 0.00 | 23 | 1014.2 |
| 20260507040519 | 25 | 237 | 3.2 | 4.8 | 0.00 | 0.00 | 0.00 | 22 | 1014.1 |
| 20260507040015 | 25 | 238 | 1.6 | 3.2 | 0.00 | 0.00 | 0.00 | 22 | 1014.0 |
| 20260507035511 | 25 | 216 | 0.0 | 1.6 | 0.00 | 0.00 | 0.00 | 22 | 1013.8 |
| 20260507035008 | 25 | 206 | 1.6 | 3.2 | 0.00 | 0.00 | 0.00 | 22 | 1013.9 |
| 20260507034505 | 25 | 202 | 0.0 | 1.6 | 0.00 | 0.00 | 0.00 | 22 | 1013.9 |
| 20260507034003 | 25 | 202 | 1.6 | 3.2 | 0.00 | 0.00 | 0.00 | 22 | 1013.9 |
| 20260507033500 | 25 | 200 | 1.6 | 1.6 | 0.00 | 0.00 | 0.00 | 22 | 1013.6 |
| 20260507032957 | 25 | 199 | 0.0 | 0.0 | 0.00 | 0.00 | 0.00 | 24 | 1013.5 |
| 20260507032454 | 25 | 199 | 1.6 | 1.6 | 0.00 | 0.00 | 0.00 | 21 | 1013.5 |
| 20260507031950 | 26 | 199 | 0.0 | 1.6 | 0.00 | 0.00 | 0.00 | 22 | 1013.4 |
| 20260507031447 | 26 | 199 | 1.6 | 1.6 | 0.00 | 0.00 | 0.00 | 20 | 1013.3 |
| 20260507030944 | 26 | 208 | 1.6 | 1.6 | 0.00 | 0.00 | 0.00 | 20 | 1013.1 |
| 20260507030441 | 26 | 241 | 1.6 | 3.2 | 0.00 | 0.00 | 0.00 | 20 | 1013.2 |
| 20260507025938 | 26 | 237 | 1.6 | 3.2 | 0.00 | 0.00 | 0.00 | 20 | 1013.2 |
| 20260507025435 | 26 | 224 | 1.6 | 1.6 | 0.00 | 0.00 | 0.00 | 20 | 1013.2 |
| 20260507024933 | 26 | 219 | 1.6 | 3.2 | 0.00 | 0.00 | 0.00 | 19 | 1013.0 |
| 20260507024430 | 26 | 223 | 1.6 | 3.2 | 0.00 | 0.00 | 0.00 | 19 | 1012.8 |
| 20260507023925 | 26 | 182 | 1.6 | 1.6 | 0.00 | 0.00 | 0.00 | 19 | 1013.0 |
| 20260507023423 | 27 | 228 | 1.6 | 1.6 | 0.00 | 0.00 | 0.00 | 19 | 1012.9 |
| 20260507022920 | 27 | 240 | 1.6 | 1.6 | 0.00 | 0.00 | 0.00 | 19 | 1012.8 |
| 20260507022417 | 27 | 239 | 1.6 | 3.2 | 0.00 | 0.00 | 0.00 | 19 | 1012.9 |
| 20260507021912 | 27 | 239 | 3.2 | 4.8 | 0.00 | 0.00 | 0.00 | 19 | 1012.8 |
| 20260507021408 | 27 | 192 | 1.6 | 3.2 | 0.00 | 0.00 | 0.00 | 19 | 1012.8 |
| 20260507020906 | 27 | 237 | 1.6 | 3.2 | 0.00 | 0.00 | 0.00 | 19 | 1012.8 |
| 20260507020402 | 27 | 243 | 1.6 | 3.2 | 0.00 | 0.00 | 0.00 | 18 | 1012.6 |
| 20260507015859 | 27 | 290 | 4.8 | 4.8 | 0.00 | 0.00 | 0.00 | 18 | 1012.9 |
| 20260507015357 | 27 | 312 | 3.2 | 4.8 | 0.00 | 0.00 | 0.00 | 18 | 1012.8 |
| 20260507014854 | 27 | 278 | 4.8 | 6.4 | 0.00 | 0.00 | 0.00 | 18 | 1012.9 |
| 20260507014350 | 28 | 217 | 6.4 | 6.4 | 0.00 | 0.00 | 0.00 | 18 | 1012.8 |
| 20260507013847 | 28 | 255 | 1.6 | 3.2 | 0.00 | 0.00 | 0.00 | 18 | 1012.7 |
| 20260507013344 | 28 | 238 | 1.6 | 3.2 | 0.00 | 0.00 | 0.00 | 18 | 1012.5 |
| 20260507012842 | 28 | 224 | 1.6 | 3.2 | 0.00 | 0.00 | 0.00 | 18 | 1012.7 |
| 20260507012337 | 28 | 239 | 4.8 | 6.4 | 0.00 | 0.00 | 0.00 | 17 | 1012.7 |
| 20260507011835 | 28 | 253 | 4.8 | 4.8 | 0.00 | 0.00 | 0.00 | 17 | 1012.7 |
| 20260507011332 | 28 | 137 | 0.0 | 3.2 | 0.00 | 0.00 | 0.00 | 18 | 1012.7 |
| 20260507010831 | 29 | 25 | 3.2 | 6.4 | 0.00 | 0.00 | 0.00 | 17 | 1012.7 |
| 20260507010327 | 29 | 197 | 1.6 | 3.2 | 0.00 | 0.00 | 0.00 | 17 | 1012.7 |
| 20260507005825 | 30 | 237 | 3.2 | 4.8 | 0.00 | 0.00 | 0.00 | 16 | 1012.6 |
| 20260507005321 | 30 | 250 | 3.2 | 4.8 | 0.00 | 0.00 | 0.00 | 17 | 1012.8 |
| 20260507004818 | 30 | 202 | 3.2 | 3.2 | 0.00 | 0.00 | 0.00 | 17 | 1012.7 |
| 20260507004315 | 30 | 271 | 3.2 | 4.8 | 0.00 | 0.00 | 0.00 | 17 | 1012.7 |
| 20260507003812 | 30 | 257 | 1.6 | 1.6 | 0.00 | 0.00 | 0.00 | 17 | 1012.6 |
| 20260507003307 | 30 | 267 | 0.0 | 3.2 | 0.00 | 0.00 | 0.00 | 17 | 1012.8 |
| 20260507002803 | 30 | 17 | 1.6 | 4.8 | 0.00 | 0.00 | 0.00 | 17 | 1012.6 |
| 20260507002259 | 30 | 12 | 1.6 | 3.2 | 0.00 | 0.00 | 0.00 | 17 | 1012.6 |
| 20260507001757 | 30 | 296 | 3.2 | 4.8 | 0.00 | 0.00 | 0.00 | 17 | 1012.7 |
| 20260507001254 | 30 | 256 | 3.2 | 6.4 | 0.00 | 0.00 | 0.00 | 16 | 1012.7 |
| 20260507000750 | 30 | 161 | 1.6 | 1.6 | 0.00 | 0.00 | 0.00 | 17 | 1012.7 |
| 20260507000246 | 30 | 211 | 3.2 | 3.2 | 0.00 | 0.00 | 0.00 | 17 | 1012.8 |
| 20260506235743 | 30 | 251 | 1.6 | 4.8 | 0.00 | 0.00 | 0.00 | 18 | 1012.8 |
| 20260506235238 | 30 | 128 | 3.2 | 4.8 | 0.00 | 0.00 | 0.00 | 17 | 1012.8 |
| 20260506234735 | 30 | 235 | 4.8 | 4.8 | 0.00 | 0.00 | 0.00 | 17 | 1012.9 |
| 20260506234232 | 30 | 28 | 3.2 | 3.2 | 0.00 | 0.00 | 0.00 | 17 | 1012.9 |
| 20260506233730 | 30 | 252 | 3.2 | 4.8 | 0.00 | 0.00 | 0.00 | 17 | 1012.9 |
| 20260506233226 | 30 | 64 | 1.6 | 3.2 | 0.00 | 0.00 | 0.00 | 18 | 1013.0 |
| 20260506232723 | 30 | 18 | 3.2 | 11.3 | 0.00 | 0.00 | 0.00 | 18 | 1013.1 |
| 20260506232218 | 30 | 78 | 0.0 | 4.8 | 0.00 | 0.00 | 0.00 | 18 | 1012.9 |
| 20260506231715 | 30 | 313 | 1.6 | 4.8 | 0.00 | 0.00 | 0.00 | 17 | 1013.0 |
| 20260506231214 | 30 | 269 | 3.2 | 6.4 | 0.00 | 0.00 | 0.00 | 17 | 1013.2 |
| 20260506230710 | 30 | 265 | 6.4 | 9.7 | 0.00 | 0.00 | 0.00 | 17 | 1013.4 |
| 20260506230207 | 30 | 148 | 1.6 | 1.6 | 0.00 | 0.00 | 0.00 | 17 | 1013.3 |
| 20260506225703 | 30 | 45 | 1.6 | 1.6 | 0.00 | 0.00 | 0.00 | 17 | 1013.2 |
| 20260506225200 | 30 | 189 | 3.2 | 3.2 | 0.00 | 0.00 | 0.00 | 17 | 1013.3 |
| 20260506224657 | 30 | 302 | 3.2 | 4.8 | 0.00 | 0.00 | 0.00 | 17 | 1013.4 |
| 20260506224154 | 30 | 256 | 4.8 | 4.8 | 0.00 | 0.00 | 0.00 | 17 | 1013.3 |
| 20260506223650 | 30 | 45 | 6.4 | 11.3 | 0.00 | 0.00 | 0.00 | 17 | 1013.3 |
| 20260506223146 | 30 | 77 | 1.6 | 1.6 | 0.00 | 0.00 | 0.00 | 17 | 1013.5 |
| 20260506222643 | 30 | 188 | 0.0 | 3.2 | 0.00 | 0.00 | 0.00 | 18 | 1013.6 |
| 20260506222139 | 30 | 281 | 4.8 | 4.8 | 0.00 | 0.00 | 0.00 | 17 | 1013.4 |
| 20260506221637 | 29 | 243 | 3.2 | 6.4 | 0.00 | 0.00 | 0.00 | 17 | 1013.6 |
| 20260506221135 | 30 | 73 | 3.2 | 9.7 | 0.00 | 0.00 | 0.00 | 18 | 1013.7 |
| 20260506220631 | 30 | 197 | 3.2 | 9.7 | 0.00 | 0.00 | 0.00 | 17 | 1013.8 |
| 20260506220126 | 29 | 39 | 3.2 | 3.2 | 0.00 | 0.00 | 0.00 | 17 | 1013.8 |
| 20260506215623 | 30 | 93 | 1.6 | 9.7 | 0.00 | 0.00 | 0.00 | 17 | 1013.9 |
| 20260506215119 | 30 | 142 | 0.0 | 3.2 | 0.00 | 0.00 | 0.00 | 17 | 1014.0 |
| 20260506214616 | 30 | 190 | 3.2 | 3.2 | 0.00 | 0.00 | 0.00 | 17 | 1014.1 |
| 20260506214113 | 30 | 254 | 4.8 | 6.4 | 0.00 | 0.00 | 0.00 | 17 | 1014.2 |
| 20260506213612 | 29 | 14 | 1.6 | 1.6 | 0.00 | 0.00 | 0.00 | 17 | 1014.2 |
| 20260506213108 | 30 | 288 | 3.2 | 4.8 | 0.00 | 0.00 | 0.00 | 17 | 1014.4 |
| 20260506212605 | 29 | 270 | 4.8 | 4.8 | 0.00 | 0.00 | 0.00 | 17 | 1014.4 |
| 20260506212100 | 28 | 208 | 3.2 | 4.8 | 0.00 | 0.00 | 0.00 | 17 | 1014.6 |
| 20260506211556 | 29 | 52 | 3.2 | 3.2 | 0.00 | 0.00 | 0.00 | 16 | 1014.9 |
| 20260506211054 | 28 | 159 | 1.6 | 6.4 | 0.00 | 0.00 | 0.00 | 17 | 1015.1 |
| 20260506210550 | 28 | 123 | 1.6 | 3.2 | 0.00 | 0.00 | 0.00 | 18 | 1014.9 |
| 20260506210046 | 28 | 124 | 1.6 | 1.6 | 0.00 | 0.00 | 0.00 | 18 | 1014.9 |
| 20260506205543 | 28 | 207 | 3.2 | 9.7 | 0.00 | 0.00 | 0.00 | 18 | 1015.0 |
| 20260506205038 | 28 | 28 | 3.2 | 4.8 | 0.00 | 0.00 | 0.00 | 18 | 1015.2 |
| 20260506204537 | 28 | 229 | 6.4 | 9.7 | 0.00 | 0.00 | 0.00 | 17 | 1015.2 |
| 20260506204033 | 28 | 135 | 3.2 | 12.9 | 0.00 | 0.00 | 0.00 | 18 | 1015.2 |
| 20260506203532 | 28 | 279 | 4.8 | 9.7 | 0.00 | 0.00 | 0.00 | 17 | 1015.3 |
| 20260506203028 | 28 | 279 | 4.8 | 11.3 | 0.00 | 0.00 | 0.00 | 17 | 1015.5 |
| 20260506202526 | 28 | 267 | 3.2 | 9.7 | 0.00 | 0.00 | 0.00 | 18 | 1015.4 |
| 20260506202022 | 27 | 231 | 1.6 | 3.2 | 0.00 | 0.00 | 0.00 | 19 | 1015.5 |
| 20260506201520 | 27 | 2 | 1.6 | 6.4 | 0.00 | 0.00 | 0.00 | 19 | 1015.5 |
| 20260506201016 | 27 | 321 | 3.2 | 4.8 | 0.00 | 0.00 | 0.00 | 18 | 1015.6 |
| 20260506200512 | 27 | 213 | 3.2 | 4.8 | 0.00 | 0.00 | 0.00 | 18 | 1015.6 |
| 20260506200009 | 28 | 29 | 1.6 | 4.8 | 0.00 | 0.00 | 0.00 | 18 | 1015.4 |
| 20260506195506 | 28 | 175 | 1.6 | 4.8 | 0.00 | 0.00 | 0.00 | 19 | 1015.6 |
| 20260506195002 | 28 | 43 | 1.6 | 4.8 | 0.00 | 0.00 | 0.00 | 19 | 1015.7 |
| 20260506194459 | 27 | 112 | 3.2 | 4.8 | 0.00 | 0.00 | 0.00 | 18 | 1015.5 |
| 20260506193956 | 27 | 86 | 1.6 | 4.8 | 0.00 | 0.00 | 0.00 | 18 | 1015.8 |
| 20260506193454 | 27 | 153 | 1.6 | 9.7 | 0.00 | 0.00 | 0.00 | 19 | 1015.7 |
| 20260506192950 | 27 | 245 | 3.2 | 4.8 | 0.00 | 0.00 | 0.00 | 18 | 1015.9 |
| 20260506192447 | 27 | 238 | 6.4 | 6.4 | 0.00 | 0.00 | 0.00 | 19 | 1016.0 |
| 20260506191943 | 27 | 154 | 1.6 | 4.8 | 0.00 | 0.00 | 0.00 | 19 | 1015.8 |
| 20260506191441 | 27 | 139 | 4.8 | 9.7 | 0.00 | 0.00 | 0.00 | 19 | 1016.0 |
| 20260506190937 | 26 | 152 | 3.2 | 4.8 | 0.00 | 0.00 | 0.00 | 21 | 1016.0 |
| 20260506190434 | 26 | 204 | 3.2 | 6.4 | 0.00 | 0.00 | 0.00 | 20 | 1016.2 |
| 20260506185931 | 27 | 215 | 4.8 | 9.7 | 0.00 | 0.00 | 0.00 | 20 | 1016.2 |
| 20260506185428 | 26 | 89 | 1.6 | 1.6 | 0.00 | 0.00 | 0.00 | 21 | 1016.3 |
| 20260506184925 | 26 | 49 | 3.2 | 4.8 | 0.00 | 0.00 | 0.00 | 21 | 1016.2 |
| 20260506184421 | 26 | 223 | 4.8 | 4.8 | 0.00 | 0.00 | 0.00 | 21 | 1016.4 |
| 20260506183919 | 26 | 231 | 3.2 | 6.4 | 0.00 | 0.00 | 0.00 | 22 | 1016.4 |
| 20260506183414 | 26 | 161 | 1.6 | 4.8 | 0.00 | 0.00 | 0.00 | 22 | 1016.5 |
| 20260506182912 | 26 | 141 | 1.6 | 3.2 | 0.00 | 0.00 | 0.00 | 22 | 1016.7 |
| 20260506182409 | 26 | 182 | 1.6 | 4.8 | 0.00 | 0.00 | 0.00 | 23 | 1016.8 |
| 20260506181906 | 26 | 325 | 1.6 | 11.3 | 0.00 | 0.00 | 0.00 | 22 | 1016.8 |
| 20260506181404 | 26 | 191 | 3.2 | 3.2 | 0.00 | 0.00 | 0.00 | 22 | 1016.8 |
| 20260506180900 | 26 | 296 | 3.2 | 4.8 | 0.00 | 0.00 | 0.00 | 23 | 1017.0 |
| 20260506180356 | 25 | 128 | 1.6 | 3.2 | 0.00 | 0.00 | 0.00 | 24 | 1017.0 |
| 20260506175853 | 25 | 52 | 3.2 | 3.2 | 0.00 | 0.00 | 0.00 | 23 | 1016.8 |
| 20260506175350 | 25 | 97 | 1.6 | 3.2 | 0.00 | 0.00 | 0.00 | 24 | 1016.7 |
| 20260506174847 | 25 | 274 | 1.6 | 4.8 | 0.00 | 0.00 | 0.00 | 24 | 1016.9 |
| 20260506174344 | 25 | 326 | 4.8 | 4.8 | 0.00 | 0.00 | 0.00 | 25 | 1017.1 |
| 20260506173842 | 25 | 41 | 0.0 | 6.4 | 0.00 | 0.00 | 0.00 | 25 | 1016.9 |
| 20260506173338 | 25 | 153 | 1.6 | 3.2 | 0.00 | 0.00 | 0.00 | 25 | 1017.0 |
| 20260506172836 | 25 | 235 | 4.8 | 4.8 | 0.00 | 0.00 | 0.00 | 25 | 1016.8 |
| 20260506172332 | 25 | 0 | 6.4 | 11.3 | 0.00 | 0.00 | 0.00 | 25 | 1016.8 |
| 20260506171830 | 24 | 71 | 1.6 | 3.2 | 0.00 | 0.00 | 0.00 | 25 | 1016.8 |
| 20260506171327 | 24 | 66 | 3.2 | 6.4 | 0.00 | 0.00 | 0.00 | 26 | 1016.9 |
| 20260506170825 | 23 | 51 | 3.2 | 6.4 | 0.00 | 0.00 | 0.00 | 26 | 1017.0 |
| 20260506170320 | 23 | 234 | 3.2 | 4.8 | 0.00 | 0.00 | 0.00 | 27 | 1016.9 |
| 20260506165819 | 23 | 252 | 3.2 | 6.4 | 0.00 | 0.00 | 0.00 | 28 | 1016.6 |
| 20260506165317 | 23 | 32 | 3.2 | 4.8 | 0.00 | 0.00 | 0.00 | 27 | 1016.8 |
| 20260506164813 | 23 | 351 | 3.2 | 6.4 | 0.00 | 0.00 | 0.00 | 27 | 1016.8 |
| 20260506164310 | 23 | 357 | 1.6 | 4.8 | 0.00 | 0.00 | 0.00 | 28 | 1016.8 |
| 20260506163807 | 23 | 17 | 6.4 | 9.7 | 0.00 | 0.00 | 0.00 | 28 | 1016.6 |
| 20260506163301 | 22 | 248 | 3.2 | 4.8 | 0.00 | 0.00 | 0.00 | 29 | 1016.7 |
| 20260506162757 | 22 | 2 | 0.0 | 4.8 | 0.00 | 0.00 | 0.00 | 29 | 1016.7 |
| 20260506162256 | 22 | 19 | 1.6 | 4.8 | 0.00 | 0.00 | 0.00 | 30 | 1016.7 |
| 20260506161753 | 22 | 257 | 3.2 | 4.8 | 0.00 | 0.00 | 0.00 | 31 | 1016.6 |
| 20260506161250 | 22 | 269 | 3.2 | 6.4 | 0.00 | 0.00 | 0.00 | 30 | 1016.7 |
| 20260506160747 | 22 | 165 | 1.6 | 6.4 | 0.00 | 0.00 | 0.00 | 31 | 1016.7 |
| 20260506160244 | 21 | 353 | 3.2 | 4.8 | 0.00 | 0.00 | 0.00 | 31 | 1016.6 |
| 20260506155743 | 21 | 7 | 1.6 | 4.8 | 0.00 | 0.00 | 0.00 | 33 | 1016.7 |
| 20260506155239 | 21 | 20 | 3.2 | 4.8 | 0.00 | 0.00 | 0.00 | 32 | 1016.8 |